User: anonymous
Location: Fort Wayne
(41.1310°N, 85.1290°W)
Time: 08:58:34
(UTC-04:00)
Language:

Oscar 19 - Orbit

View from above orbital plane
View from above orbital plane
View from above satellite
View from above satellite

Ground track
Ground track

The orbit data is extracted from the following two-line orbital elements,

1 20442U 90005G   14106.40158448  .00000193  00000-0  86926-4 0  9383
2 20442 098.4740 045.7554 0011070 336.7070 023.3612 14.32536493265832
Epoch (UTC): 16 April 2014 09:38:16
Eccentricity: 0.0011070
inclination: 98.4740°
perigee height: 775 km
apogee height: 791 km
right ascension of ascending node: 45.7554°
argument of perigee: 336.7070°
revolutions per day: 14.32536493
mean anomaly at epoch: 23.3612°
orbit number at epoch: 26583

The dashed part of the orbit path shows where the satellite is in the earth's shadow,  

DLR